Location: ???? ?????????
(44.3677°N, 135.2344°E)
Time: 04:57:40
(UTC+00:00)

ISS - Pass Details

Date: 19 May 2025
Orbit: 415 x 418 km, 51.6° (Epoch: 19 June)

Event Time Altitude Azimuth Distance (km) Brightness Sun altitude
Rises 12:26:11 0° 301° (WNW) 2,362 1.3 -17.2°
Reaches altitude 10° 12:28:25 10° 311° (NW) 1,496 0.3 -17.5°
Maximum altitude 12:31:30 33° 17° (NNE) 729 -2.2 -17.8°
Enters shadow 12:33:14 20° 69° (ENE) 1,038 -1.9 -18.0°
